Volver al catálogo

OPS 7218

TRANSIT 16

ActivoNavegaciónPO
NORAD 2807·PAYLOAD·🇺🇸 United States

Lanzado May 18, 1967 desde Vandenberg Space Force Base

Loading…

Próximos Pases (próximas 24 horas)

TLE

ActualizadoSource: Space-Track

Época: Sep 14, 2026, 03:49 UTC

1 02807U 67048A   26257.15906020  .00000086  00000-0  11701-3 0  9994
2 02807  89.6784 344.9732 0021307  44.3621 331.7815 13.50779629919945

Sigue OPS 7218 en tiempo real con AllMySat

Download on the App Store